Location: Oberkirch
(48.5323°N, 8.0787°E)
Time: 23:52:47
(UTC+00:00)

CUBEBUG 2 - Pass Details

Date: 14 March 2026
Orbit: 548 x 627 km, 97.9° (Epoch: 13 April)

Event Time Altitude Azimuth Distance (km) Brightness Sun altitude
Rises 03:24:24 0° 358° (N) 2,886 ? -23.3°
Reaches altitude 10° 03:27:22 10° 336° (NNW) 1,990 ? -22.8°
Enters shadow 03:28:01 12° 328° (NNW) 1,853 ? -22.7°
